Location: Brodie Road Observatory
(45.4241°N, 74.5431°W)
Time: 10:51:23
(UTC-05:00)

Daily predictions for brighter satellites

Satellite Brightness Start Highest point End
(mag) Time Altitude Azimuth Time Altitude Azimuth Time Altitude Azimuth
NOSS 3-3 (A) 4.2 17:11:17 10° SW 17:17:24 77° NW 17:24:10 10° NE
NOSS 3-3 (C) 4.2 17:11:23 10° SW 17:17:29 77° NW 17:24:16 10° NE
Cosmos 1346 Rocket 4.1 17:16:54 10° NNE 17:19:48 20° ENE 17:22:41 10° ESE
Cosmos 1943 3.4 17:16:42 10° SSW 17:22:19 76° WNW 17:27:59 10° NNE
Cosmos 2181 Rocket 4.1 17:17:43 10° S 17:24:06 68° E 17:30:28 10° NNE
Cosmos 1455 3.9 17:23:39 10° NE 17:25:42 14° ENE 17:27:44 10° E
Cosmos 1315 Rocket 3.5 17:23:43 10° SSE 17:27:16 33° E 17:30:49 10° NNE
CZ-2C R/B 4.2 17:24:13 10° NNE 17:28:44 43° E 17:33:08 10° S
Cosmos 1408 Rocket 4.3 17:28:38 10° SSE 17:32:23 30° E 17:36:10 10° NNE
SL-8 Rocket 4.0 17:28:08 10° N 17:34:21 73° E 17:40:33 10° SSE
Cosmos 1674 4.1 17:31:40 10° SSW 17:35:12 39° WNW 17:38:44 10° N
Meteor 1-21 Rocket 4.5 17:30:23 10° S 17:36:18 86° W 17:42:17 10° N
Cosmos 1076 Rocket 3.5 17:34:44 10° S 17:39:05 73° E 17:43:28 10° NNE
COSMO-SKYMED 1 3.0 17:37:44 10° NNE 17:41:51 40° E 17:45:56 10° SSE
Cosmos 44 3.3 17:37:57 10° SSW 17:42:06 48° ESE 17:46:24 10° NE
Cosmos 1626 2.9 17:39:07 10° SSE 17:42:25 31° E 17:45:45 10° NNE
Cosmos 2218 Rocket 3.9 17:37:12 10° N 17:43:22 71° E 17:49:29 10° SSE
USA 116 4.1 17:41:56 10° NNE 17:46:17 74° ESE 17:51:09 10° S
NOAA 12 4.3 17:42:49 10° SE 17:47:49 47° ENE 17:52:51 10° N
EO 1 Del DPAF 4.3 17:45:32 10° NE 17:48:48 26° E 17:52:05 10° SSE
Cosmos 1328 3.9 17:46:29 10° S 17:50:25 58° E 17:54:24 10° NNE
Cosmos 1656 Rocket 3.6 17:45:42 10° NNW 17:51:13 83° ENE 17:56:45 10° SSE
Landsat 4 4.2 17:47:43 10° NNE 17:51:13 36° E 17:54:40 10° SSE
SMAP 4.1 17:47:08 10° S 17:51:39 50° W 17:56:12 10° NNW
IRS-1A Rocket 4.3 17:47:35 10° SSE 17:53:09 89° ENE 17:58:51 10° NNW
Cosmos 1400 Rocket 3.6 17:49:51 10° SSW 17:53:51 56° WNW 17:57:56 10° N
USA 215 4.2 17:51:20 10° NE 17:57:06 36° NNW 18:02:56 10° WNW
SL-24 R/B - RUBIN 2 3.9 17:53:16 10° NW 17:57:49 71° SW 18:02:05 10° SSE
Cosmos 909 Rocket 4.3 17:51:11 10° NNW 17:58:04 50° NE 18:04:09 10° ESE
Tiangong 1 2.7 17:57:06 10° WSW 17:59:09 23° SSW 18:01:11 10° SE
Cosmos 2228 Rocket 3.7 17:55:08 10° N 17:59:23 36° ENE 18:03:36 10° SE
Ariane Rocket 4.1 17:54:39 10° S 17:59:33 50° W 18:04:31 10° NNW
Cosmos 1743 Rocket 4.3 17:57:05 10° SSE 18:00:53 30° E 18:04:41 10° NNE
Cosmos 1328 Rocket 3.7 17:57:17 10° N 18:01:32 48° ENE 18:05:44 10° SSE
Cosmos 1943 Rocket 4.0 17:57:15 10° NW 18:02:18 35° WSW 18:07:17 10° S
ERS-2 2.6 18:00:36 10° SE 18:04:02 38° ENE 18:07:29 10° N
Cosmos 1300 3.8 18:00:30 10° NNW 18:04:12 48° W 18:07:53 10° SSW
SL-08 R/B 4.4 17:58:02 10° N 18:04:16 83° E 18:10:23 10° S
Cosmos 1241 Rocket 4.4 18:01:29 10° NNW 18:07:41 68° NE 18:13:53 10° SE
MOS 1 4.2 18:02:47 10° SSE 18:08:25 81° ENE 18:14:05 10° NNW
Meteor 2-2 Rocket 4.3 18:02:46 10° N 18:08:33 89° WSW 18:14:12 10° S
Cosmos 1703 3.6 18:06:17 10° SSE 18:10:04 44° E 18:13:52 10° NNE
SKYMED 3 4.5 18:07:36 10° NNE 18:11:58 83° ESE 18:16:19 10° SSW
Cosmos 1340 4.3 18:09:29 10° NNE 18:10:58 17° NE 18:10:58 17° NE
ERBS 3.1 18:11:44 10° NW 18:14:50 32° NNE 18:15:29 29° NE
Cosmos 2366 rocket 4.3 18:11:21 10° NNW 18:17:34 73° W 18:23:42 10° S
Cosmos 1766 Rocket 3.7 18:15:40 10° SSW 18:19:57 72° W 18:24:19 10° N
Cosmos 44 Rocket 3.1 18:15:56 10° SSW 18:20:38 88° ESE 18:24:06 19° NE
Cosmos 1777 Rocket 4.4 18:17:01 10° NNW 18:22:14 68° WSW 18:27:26 10° S
Cosmos 1821 Rocket 4.2 18:17:12 10° N 18:23:06 46° ENE 18:29:03 10° SSE
FENGYUN 3A 3.8 18:19:36 10° S 18:24:57 78° WSW 18:30:21 10° NNW
MTI 4.0 18:23:29 10° N 18:26:42 69° WNW 18:29:52 10° SSW
SPOT 3 Rocket 3.5 18:23:00 10° SSE 18:28:09 86° WSW 18:33:21 10° NNW
Cosmos 1980 Rocket 4.0 18:27:03 10° N 18:29:06 13° NNE 18:29:06 13° NNE
SKYMED 2 4.0 18:25:40 10° N 18:29:59 64° WNW 18:34:16 10° SSW
Cosmos 1151 Rocket 2.9 18:29:02 10° N 18:33:25 66° E 18:37:46 10° SSE
Cosmos 2058 2.8 18:33:33 10° S 18:37:42 74° E 18:41:10 15° NNE
Nadezhda 3 Rocket 3.9 18:32:32 10° S 18:38:50 72° E 18:45:12 10° NNE
ALOS 3.2 18:34:35 10° S 18:39:07 51° W 18:43:41 10° NNW
ATLAS 5 CENTAUR R/B 4.1 18:37:26 10° NNW 18:40:03 13° NNE 18:40:57 13° NNE
USA 81 4.0 18:35:09 10° S 18:40:21 65° E 18:45:35 10° N
Cosmos 332 Rocket 3.7 18:36:37 10° S 18:41:28 67° ESE 18:44:03 28° NNE
Cosmos 2208 Rocket 4.2 18:41:52 10° S 18:46:55 48° ESE 18:48:10 40° ENE
Cosmos 2278 4.2 18:44:10 10° NNW 18:49:27 36° NE 18:49:30 36° NE
Cosmos 1898 Rocket 3.6 18:47:17 10° NNW 18:52:30 51° ENE 18:53:18 46° E
Lacrosse 5 3.3 18:49:21 10° S 18:52:14 22° SE 18:52:14 22° SE
H-2A R/B 3.1 18:53:24 10° S 18:57:11 63° W 19:01:03 10° NNW
Cosmos 1934 Rocket 3.9 18:52:58 10° N 18:59:18 64° ENE 19:05:37 10° SSE
COSMOS 2406 3.2 18:53:54 10° SSW 18:59:38 82° WNW 19:03:08 25° NNE
CZ-4C R/B 3.4 18:55:18 10° S 18:57:47 23° SSE 18:57:47 23° SSE
Cosmos 1455 3.2 18:57:57 10° NNW 19:01:41 47° W 19:05:20 10° SSW
Cosmos 2151 3.3 18:58:11 10° SSW 19:02:25 64° W 19:05:38 17° N
RESURS DK-1 4.0 18:58:57 10° NNW 19:00:50 23° N 19:00:50 23° N
Cosmos 2369 3.9 18:58:48 10° NNW 19:04:19 49° NE 19:04:19 49° NE
Cosmos 1605 Rocket 4.1 18:59:48 10° N 19:05:25 48° ENE 19:05:25 48° ENE
GEOS 3 Rocket 3.5 19:11:16 54° SE 19:12:31 82° NE 19:17:57 10° NW
Envisat 3.3 19:13:57 49° NNE 19:13:57 49° NNE 19:17:50 10° N
Cosmos 1656 4.1 19:09:35 10° NNW 19:13:50 44° NNE 19:13:50 44° NNE
Cosmos 1697 Rocket 3.8 19:10:53 10° NNW 19:14:14 30° NNE 19:14:14 30° NNE
Cosmos 1570 Rocket 4.0 19:14:51 10° SSW 19:20:10 80° WNW 19:21:26 53° N
Cosmos 371 Rocket 3.9 19:21:42 10° SW 19:26:25 54° WNW 19:27:37 42° NNW
USA 215 4.1 19:38:40 33° NNE 19:39:06 34° N 19:44:50 10° NW
Thor Agena Rocket 3.9 19:44:12 62° WNW 19:44:23 63° WNW 19:49:31 10° SSW
Cosmos 1937 Rocket 4.3 19:39:19 10° NNW 19:42:49 43° NNW 19:42:49 43° NNW
Cosmos 1980 Rocket 4.3 20:09:27 10° NNW 20:10:53 18° NNW 20:10:53 18° NNW
